Find Starlink 34922

NORAD ID: 65273 Int'l Des: 2025-184 Owner: SPXS Country: US Constellation: starlink operational
LEOCIRCULARRETROGRADESSO

当前视图

正在加载3D地球...

About Starlink 34922

Starlink 34922 (NORAD 65273) is a starlink constellation satellite (v2 mini) launched Aug 22, 2025 by SPXS of US. It operates in LEO, CIRCULAR, RETROGRADE, SSO orbit with a mass of 575.00 kg.

即将过境

Passes for default location (London). Set your location on the main map for personalized predictions.

高度历史

Loading altitude history...

两行轨道根数

1 65273U 25184A 26252.06823130 .00022268 00000-0 68964-3 0 9999
2 65273 97.2839 300.2169 0001151 84.8904 275.2470 15.33463522 58975
Epoch: Sep 9, 2026 • Age: 9 hours

当前状态

高度 494.4 km
远地点 / 近地点 N/A
速度 7.62 km/s
星下点 -80.47°S, 76.33°W
发射日期 Aug 22, 2025
运行时间 1 year
类型 internet

技术详情

分类 Payload
质量 575.00 kg
干质量 530.00 kg
总质量 575.00 kg
长度 0.30 m
直径 4.10 m
跨度 29.00 m
形状 Box + pan
制造商 SPXS
平台类型 Starlink V2MO
阶段状态 In Orbit
所有者/国家 SPXS/US

Most Searched